LIRFLIRS

Guest
Details From LIRF - Roma Fiumicino Leonardo Da Vinci
To LIRS - GROSSETO
Flight Number -
Tags generated
Created
Modified
Stats Distance 77 nm / 143 km
Max Altitude 9,400 ft / 2,865 m
Waypoints 3
Social Downloads 0
Likes 0
Share VATSIM

Download

Looking for another format? Having issues loading an existing format? Contact us
Advertisement - Login to hide

Notes

Basic altitude profile: - Ascent Rate: 2500ft/min - Ascent Speed: 250kts - Cruise Altitude: 20000ft - Cruise Speed: 420kts - Descent Rate: 1500ft/min - Descent Speed: 250kts Options: - Use NATs: yes - Use PACOTS: yes - Use low airways: yes - Use high airways: yes

Route

LIRF TAQ LIRS

ID Type Via Altitude Latitude Longitude Leg Dist Tot Dist Heading (true) Name
O LIRF APT - 0 ft / 0 m 41.81081˚ 12.25090˚ - 0 nm - Roma Fiumicino Leonardo Da Vinci
TAQ VOR - 9,400 ft / 2,865 m 42.21498˚ 11.73249˚ 33 nm 33 nm 317° / 316° TARQUINIA VOR-DME
O LIRS APT - 0 ft / 0 m 42.76028˚ 11.07198˚ 43 nm 77 nm 318° / 318° GROSSETO

Altitude Profile

Advertisement - Login to hide

LIRF

Details ICAO LIRF (FCO)
Name Roma Fiumicino Leonardo Da Vinci
Region Italy
Timezone Europe/Rome (UTC+2.0)
Stats Elevation 15 ft / 5 m (AMSL)
Location 41.810809° 12.250897°
Runways 3
Magnetic Variation 3.041° E

METAR

LIRF 240020Z 33004KT CAVOK 16/15 Q1016 NOSIG

Decode

TAF

TAF LIRF 232300Z 2400/2506 34007KT 9999 SCT030 BECMG 2408/2410 27013KT BECMG 2416/2418 VRB05KT

Decode

Departure Runways

ID Width Length Bearing (true) Bearing (mag) Surface Threshold Offset Overrun Length
07 148 ft / 45 m 10,835 ft / 3,302 m 69.67° 66.63° Asphalt 1,365 ft / 416 m 0 ft / 0 m
16L 197 ft / 60 m 12,832 ft / 3,911 m 162.67° 159.63° Asphalt 0 ft / 0 m 0 ft / 0 m
16R 197 ft / 60 m 12,822 ft / 3,908 m 162.66° 159.62° Asphalt 0 ft / 0 m 0 ft / 0 m
25 148 ft / 45 m 10,835 ft / 3,302 m 249.70° 246.66° Asphalt 0 ft / 0 m 0 ft / 0 m
34L 197 ft / 60 m 12,822 ft / 3,908 m 342.67° 339.63° Asphalt 1,053 ft / 321 m 0 ft / 0 m
34R 197 ft / 60 m 12,832 ft / 3,911 m 342.68° 339.64° Asphalt 0 ft / 0 m 0 ft / 0 m

LIRS

Details ICAO LIRS (GRS)
Name GROSSETO
Region Italy
Timezone Europe/Rome (UTC+2.0)
Stats Elevation 15 ft / 5 m (AMSL)
Location 42.760275° 11.071980°
Runways 2
Magnetic Variation 2.857° E

METAR

LIRS 232355Z 03001KT CAVOK 14/13 Q1017

Decode

TAF

Not found

Destination Runways

ID Width Length Bearing (true) Bearing (mag) Surface Threshold Offset Overrun Length
03 148 ft / 45 m 9,826 ft / 2,995 m 30.87° 28.01° Asphalt 317 ft / 97 m 0 ft / 0 m
03R 80 ft / 24 m 7,731 ft / 2,356 m 30.70° 27.84° Asphalt 0 ft / 0 m 1,091 ft / 333 m
21 148 ft / 45 m 9,826 ft / 2,995 m 210.88° 208.02° Asphalt 0 ft / 0 m 0 ft / 0 m
21L 80 ft / 24 m 7,731 ft / 2,356 m 210.71° 207.85° Asphalt 0 ft / 0 m 875 ft / 267 m

Popular Alternatives